H1 CPF 2 NER 2022 10 8 9 281 01 glonass134 H2 1407501 9134 40315 2022 10 8 0 0 0 2022 10 11 23 45 0 900 1 1 0 0 0 1 H9 10 0 59860 0.00000 0 -7062934.024 8830884.402 -22843324.354 10 0 59860 900.00000 0 -9260711.514 7077973.225 -22674307.174 10 0 59860 1800.00000 0 -11536133.263 5511655.701 -22064268.086 10 0 59860 2700.00000 0 -13828327.371 4161978.167 -21025368.084 10 0 59860 3600.00000 0 -16073039.485 3047440.253 -19578083.563 10 0 59860 4500.00000 0 -18205156.711 2174443.915 -17750786.779 10 0 59860 5400.00000 0 -20161277.565 1537262.120 -15579175.966 10 0 59860 6300.00000 0 -21882221.409 1118525.272 -13105567.347 10 0 59860 7200.00000 0 -23315373.749 890202.031 -10378063.700 10 0 59860 8100.00000 0 -24416771.107 815030.724 -7449616.151 10 0 59860 9000.00000 0 -25152840.266 848339.164 -4376997.562 10 0 59860 9900.00000 0 -25501721.187 940174.987 -1219707.358 10 0 59860 10800.00000 0 -25454120.312 1037656.155 1961171.454 10 0 59860 11700.00000 0 -25013660.304 1087442.576 5104141.712 10 0 59860 12600.00000 0 -24196712.971 1038225.234 8148466.234 10 0 59860 13500.00000 0 -23031723.204 843128.771 11035325.246 10 0 59860 14400.00000 0 -21558052.446 461927.296 13708936.081 10 0 59860 15300.00000 0 -19824389.595 -137018.968 16117614.979 10 0 59860 16200.00000 0 -17886794.763 -975187.128 18214761.938 10 0 59860 17100.00000 0 -15806455.922 -2062741.401 19959751.058 10 0 59860 18000.00000 0 -13647250.216 -3397858.127 21318710.239 10 0 59860 18900.00000 0 -11473209.458 -4966555.688 22265176.100 10 0 59860 19800.00000 0 -9345993.337 -6743038.590 22780611.857 10 0 59860 20700.00000 0 -7322473.813 -8690543.931 22854778.029 10 0 59860 21600.00000 0 -5452529.853 -10762658.027 22485948.191 10 0 59860 22500.00000 0 -3777143.453 -12905051.502 21680964.410 10 0 59860 23400.00000 0 -2326876.103 -15057563.496 20455129.608 10 0 59860 24300.00000 0 -1120789.483 -17156550.741 18831936.974 10 0 59860 25200.00000 0 -165856.220 -19137405.562 16842639.379 10 0 59860 26100.00000 0 543113.537 -20937138.743 14525665.004 10 0 59860 27000.00000 0 1023025.516 -22496919.635 11925888.483 10 0 59860 27900.00000 0 1301552.497 -23764466.583 9093770.092 10 0 59860 28800.00000 0 1415722.476 -24696186.067 6084378.728 10 0 59860 29700.00000 0 1410103.315 -25258968.852 2956317.304 10 0 59860 30600.00000 0 1334661.119 -25431565.446 -229428.209 10 0 59860 31500.00000 0 1242384.180 -25205480.758 -3410692.525 10 0 59860 32400.00000 0 1186775.027 -24585348.350 -6525362.569 10 0 59860 33300.00000 0 1219319.272 -23588767.125 -9512610.701 10 0 59860 34200.00000 0 1387041.231 -22245606.647 -12314103.312 10 0 59860 35100.00000 0 1730252.675 -20596810.395 -14875158.992 10 0 59860 36000.00000 0 2280592.659 -18692748.095 -17145831.718 10 0 59860 36900.00000 0 3059443.509 -16591187.787 -19081896.297 10 0 59860 37800.00000 0 4076791.539 -14354974.513 -20645715.864 10 0 59860 38700.00000 0 5330581.553 -12049514.744 -21806974.116 10 0 59860 39600.00000 0 6806592.606 -9740173.585 -22543258.186 10 0 59860 40500.00000 0 8478839.968 -7489694.767 -22840481.609 10 0 59860 41400.00000 0 10310485.741 -5355751.702 -22693140.359 10 0 59860 42300.00000 0 12255218.866 -3388731.642 -22104398.499 10 0 59860 43200.00000 0 14259045.680 -1629844.214 -21086003.540 10 0 59860 44100.00000 0 16262415.155 -109631.345 -19658034.858 10 0 59860 45000.00000 0 18202589.215 1153061.766 -17848491.759 10 0 59860 45900.00000 0 20016158.816 2151614.745 -15692730.657 10 0 59860 46800.00000 0 21641600.849 2891640.424 -13232763.486 10 0 59860 47700.00000 0 23021769.668 3390476.373 -10516431.891 10 0 59860 48600.00000 0 24106220.253 3676183.940 -7596473.810 10 0 59860 49500.00000 0 24853267.403 3786099.310 -4529500.705 10 0 59860 50400.00000 0 25231696.485 3764999.352 -1374905.267 10 0 59860 51300.00000 0 25222055.998 3662960.591 1806279.699 10 0 59860 52200.00000 0 24817479.475 3533001.938 4952549.897 10 0 59860 53100.00000 0 24024003.662 3428610.260 8003103.907 10 0 59860 54000.00000 0 22860370.561 3401252.411 10899001.895 10 0 59860 54900.00000 0 21357321.891 3497977.580 13584287.607 10 0 59860 55800.00000 0 19556415.146 3759209.860 16007053.422 10 0 59860 56700.00000 0 17508409.723 4216823.105 18120429.388 10 0 59860 57600.00000 0 15271288.900 4892578.532 19883478.547 10 0 59860 58500.00000 0 12907998.216 5796990.808 21261982.396 10 0 59860 59400.00000 0 10483992.163 6928670.964 22229102.194 10 0 59860 60300.00000 0 8064688.989 8274175.235 22765903.807 10 0 59860 61200.00000 0 5712937.381 9808368.312 22861735.806 10 0 59860 62100.00000 0 3486598.544 11495288.528 22514452.960 10 0 59860 63000.00000 0 1436342.893 13289481.901 21730479.612 10 0 59860 63900.00000 0 -396247.601 15137752.288 20524710.078 10 0 59860 64800.00000 0 -1980192.557 16981257.412 18920246.008 10 0 59860 65700.00000 0 -3296178.290 18757865.464 16947973.556 10 0 59860 66600.00000 0 -4337129.500 20404675.266 14645986.371 10 0 59860 67500.00000 0 -5108262.608 21860595.192 12058863.557 10 0 59860 68400.00000 0 -5626617.459 23068872.570 9236814.970 10 0 59860 69300.00000 0 -5920086.242 23979466.253 6234709.448 10 0 59860 70200.00000 0 -6025980.188 24551160.905 3111004.445 10 0 59860 71100.00000 0 -5989194.789 24753331.805 -73401.779 10 0 59860 72000.00000 0 -5860051.989 24567283.355 -3256371.983 10 0 59860 72900.00000 0 -5691912.236 23987102.625 -6375760.756 10 0 59860 73800.00000 0 -5538659.758 23019989.980 -9370648.348 10 0 59860 74700.00000 0 -5452170.083 21686051.564 -12182551.091 10 0 59860 75600.00000 0 -5479869.879 20017561.775 -14756582.650 10 0 59860 76500.00000 0 -5662495.088 18057726.898 -17042541.431 10 0 59860 77400.00000 0 -6032144.521 15859002.741 -18995901.295 10 0 59860 78300.00000 0 -6610713.026 13481038.210 -20578685.233 10 0 59860 79200.00000 0 -7408771.540 10988332.589 -21760204.555 10 0 59860 80100.00000 0 -8424941.742 8447706.202 -22517649.312 10 0 59860 81000.00000 0 -9645791.442 5925691.484 -22836519.238 10 0 59860 81900.00000 0 -11046254.451 3485954.084 -22710888.011 10 0 59860 82800.00000 0 -12590556.158 1186851.751 -22143497.224 10 0 59860 83700.00000 0 -14233604.741 -920768.034 -21145679.974 10 0 59860 84600.00000 0 -15922788.495 -2795441.403 -19737117.278 10 0 59860 85500.00000 0 -17600102.856 -4406556.568 -17945433.772 10 0 59861 0.00000 0 -19204517.292 -5735358.896 -15805642.199 10 0 59861 900.00000 0 -20674483.539 -6775454.548 -13359447.482 10 0 59861 1800.00000 0 -21950478.287 -7532793.183 -10654427.799 10 0 59861 2700.00000 0 -22977477.446 -8025136.111 -7743105.255 10 0 59861 3600.00000 0 -23707257.329 -8281033.163 -4681927.218 10 0 59861 4500.00000 0 -24100428.652 -8338354.346 -1530176.944 10 0 59861 5400.00000 0 -24128119.549 -8242439.453 1651165.666 10 0 59861 6300.00000 0 -23773238.610 -8043944.471 4800591.846 10 0 59861 7200.00000 0 -23031266.319 -7796475.560 7857238.568 10 0 59861 8100.00000 0 -21910542.663 -7554109.911 10762048.486 10 0 59861 9000.00000 0 -20432039.239 -7368907.018 13458894.198 10 0 59861 9900.00000 0 -18628625.161 -7288514.043 15895646.486 10 0 59861 10800.00000 0 -16543856.536 -7353964.977 18025167.452 10 0 59861 11700.00000 0 -14230338.498 -7597765.257 19806210.781 10 0 59861 12600.00000 0 -11747726.101 -8042341.898 21204212.880 10 0 59861 13500.00000 0 -9160444.923 -8698924.367 22191960.549 10 0 59861 14400.00000 0 -6535223.634 -9566904.027 22750122.758 10 0 59861 15300.00000 0 -3938538.689 -10633700.545 22867636.153 10 0 59861 16200.00000 0 -1434075.108 -11875143.074 22541936.301 10 0 59861 17100.00000 0 919692.948 -13256352.931 21779029.050 10 0 59861 18000.00000 0 3071702.312 -14733093.686 20593398.989 10 0 59861 18900.00000 0 4980190.699 -16253534.975 19007754.792 10 0 59861 19800.00000 0 6614197.549 -17760358.735 17052614.165 10 0 59861 20700.00000 0 7954612.540 -19193121.417 14765734.199 10 0 59861 21600.00000 0 8994727.026 -20490774.262 12191396.178 10 0 59861 22500.00000 0 9740264.218 -21594236.011 9379556.997 10 0 59861 23400.00000 0 10208885.841 -22448909.180 6384882.673 10 0 59861 24300.00000 0 10429195.397 -23007032.492 3265682.284 10 0 59861 25200.00000 0 10439279.947 -23229768.232 82763.360 10 0 59861 26100.00000 0 10284852.507 -23088933.984 -3101767.924 10 0 59861 27000.00000 0 10017074.805 -22568303.161 -6225736.807 10 0 59861 27900.00000 0 9690154.414 -21664417.061 -9228134.284 10 0 59861 28800.00000 0 9358820.310 -20386872.357 -12050329.342 10 0 59861 29700.00000 0 9075786.370 -18758070.653 -14637233.208 10 0 59861 30600.00000 0 8889312.844 -16812440.150 -16938390.936 10 0 59861 31500.00000 0 8840971.368 -14595162.431 -18908977.326 10 0 59861 32400.00000 0 8963709.969 -12160458.641 -20510676.718 10 0 59861 33300.00000 0 9280301.133 -9569508.130 -21712429.086 10 0 59861 34200.00000 0 9802239.011 -6888088.165 -22491027.963 10 0 59861 35100.00000 0 10529132.195 -4184034.591 -22831559.346 10 0 59861 36000.00000 0 11448616.913 -1524630.375 -22727674.207 10 0 59861 36900.00000 0 12536793.121 1025968.694 -22181690.808 10 0 59861 37800.00000 0 13759163.708 3409164.211 -21204526.570 10 0 59861 38700.00000 0 15072035.874 5574101.258 -19815462.555 10 0 59861 39600.00000 0 16424324.411 7479521.050 -18041746.818 10 0 59861 40500.00000 0 17759680.134 9095205.541 -15918045.843 10 0 59861 41400.00000 0 19018853.480 10402956.695 -13485755.901 10 0 59861 42300.00000 0 20142193.897 11397072.726 -10792188.694 10 0 59861 43200.00000 0 21072180.476 12084304.744 -7889647.662 10 0 59861 44100.00000 0 21755878.412 12483298.657 -4834413.107 10 0 59861 45000.00000 0 22147219.315 12623548.348 -1685655.797 10 0 59861 45900.00000 0 22209011.060 12543906.136 1495700.309 10 0 59861 46800.00000 0 21914594.204 12290714.433 4648144.917 10 0 59861 47700.00000 0 21249076.785 11915637.774 7710756.144 10 0 59861 48600.00000 0 20210096.640 11473286.363 10624361.634 10 0 59861 49500.00000 0 18808079.787 11018730.480 13332665.029 10 0 59861 50400.00000 0 17065983.912 10605009.283 15783317.394 10 0 59861 51300.00000 0 15018536.917 10280737.551 17928914.442 10 0 59861 52200.00000 0 12711000.833 10087909.833 19727901.743 10 0 59861 53100.00000 0 10197510.713 10059993.315 21145371.544 10 0 59861 54000.00000 0 7539055.164 10220389.074 22153736.823 10 0 59861 54900.00000 0 4801179.828 10581326.476 22733269.964 10 0 59861 55800.00000 0 2051506.550 11143237.943 22872495.664 10 0 59861 56700.00000 0 -642831.268 11894641.865 22568429.895 10 0 59861 57600.00000 0 -3217732.842 12812540.687 21826659.223 10 0 59861 58500.00000 0 -5614549.520 13863319.994 20661257.295 10 0 59861 59400.00000 0 -7782280.035 15004113.544 19094538.197 10 0 59861 60300.00000 0 -9679450.433 16184579.526 17156649.176 10 0 59861 61200.00000 0 -11275599.880 17349015.550 14885008.438 10 0 59861 62100.00000 0 -12552309.493 18438724.955 12323596.853 10 0 59861 63000.00000 0 -13503730.082 19394535.533 9522115.588 10 0 59861 63900.00000 0 -14136585.429 20159364.293 6535024.980 10 0 59861 64800.00000 0 -14469650.108 20680719.009 3420482.838 10 0 59861 65700.00000 0 -14532723.305 20913029.105 239203.088 10 0 59861 66600.00000 0 -14365142.012 20819705.023 -2946741.983 10 0 59861 67500.00000 0 -14013897.192 20374836.423 -6075150.984 10 0 59861 68400.00000 0 -13531434.009 19564454.845 -9084928.250 10 0 59861 69300.00000 0 -12973231.244 18387305.204 -11917297.806 10 0 59861 70200.00000 0 -12395264.713 16855091.818 -14516970.604 10 0 59861 71100.00000 0 -11851464.603 14992187.454 -16833240.217 10 0 59861 72000.00000 0 -11391276.676 12834817.345 -18820983.940 10 0 59861 72900.00000 0 -11057432.494 10429752.721 -20441548.695 10 0 59861 73800.00000 0 -10884024.302 7832569.464 -21663503.998 10 0 59861 74700.00000 0 -10894966.598 5105546.009 -22463247.407 10 0 59861 75600.00000 0 -11102909.243 2315289.536 -22825451.372 10 0 59861 76500.00000 0 -11508647.243 -469809.473 -22743343.988 10 0 59861 77400.00000 0 -12101050.781 -3182187.489 -22218819.631 10 0 59861 78300.00000 0 -12857516.781 -5757674.316 -21262379.117 10 0 59861 79200.00000 0 -13744921.204 -8137909.431 -19892902.225 10 0 59861 80100.00000 0 -14721030.236 -10272509.023 -18137258.750 10 0 59861 81000.00000 0 -15736309.486 -12120895.612 -16029767.112 10 0 59861 81900.00000 0 -16736053.994 -13653716.645 -13611512.279 10 0 59861 82800.00000 0 -17662748.831 -14853795.844 -10929537.206 10 0 59861 83700.00000 0 -18458560.908 -15716580.783 -8035924.111 10 0 59861 84600.00000 0 -19067857.615 -16250071.081 -4986783.604 10 0 59861 85500.00000 0 -19439647.201 -16474232.979 -1841171.336 10 0 59862 0.00000 0 -19529839.420 -16419927.205 1340047.004 10 0 59862 900.00000 0 -19303232.685 -16127396.722 4495362.768 10 0 59862 1800.00000 0 -18735145.430 -15644378.973 7563797.480 10 0 59862 2700.00000 0 -17812624.313 -15023922.124 10486066.280 10 0 59862 3600.00000 0 -16535178.983 -14321996.694 13205706.266 10 0 59862 4500.00000 0 -14915012.771 -13595002.090 15670151.052 10 0 59862 5400.00000 0 -12976738.988 -12897271.549 17831732.029 10 0 59862 6300.00000 0 -10756593.374 -12278678.921 19648588.439 10 0 59862 7200.00000 0 -8301173.683 -11782446.496 21085469.855 10 0 59862 8100.00000 0 -5665756.430 -11443244.929 22114416.526 10 0 59862 9000.00000 0 -2912258.013 -11285664.495 22715304.975 10 0 59862 9900.00000 0 -106922.075 -11323121.983 22876248.268 10 0 59862 10800.00000 0 2682173.707 -11557249.861 22593842.727 10 0 59862 11700.00000 0 5387690.456 -11977794.846 21873255.203 10 0 59862 12600.00000 0 7945575.622 -12563032.082 20728147.640 10 0 59862 13500.00000 0 10297480.743 -13280679.853 19180438.425 10 0 59862 14400.00000 0 12392949.498 -14089278.759 17259902.917 10 0 59862 15300.00000 0 14191284.776 -14939979.505 15003618.663 10 0 59862 16200.00000 0 15663016.170 -15778665.721 12455263.999 10 0 59862 17100.00000 0 16790905.478 -16548323.342 9664281.892 10 0 59862 18000.00000 0 17570446.708 -17191556.716 6684924.187 10 0 59862 18900.00000 0 18009838.434 -17653144.459 3575194.327 10 0 59862 19800.00000 0 18129428.757 -17882525.501 395709.320 10 0 59862 20700.00000 0 17960655.853 -17836107.968 -2791495.849 10 0 59862 21600.00000 0 17544529.151 -17479300.639 -5924196.574 10 0 59862 22500.00000 0 16929716.254 -16788178.275 -8941213.825 10 0 59862 23400.00000 0 16170318.112 -15750707.818 -11783629.761 10 0 59862 24300.00000 0 15323428.647 -14367481.459 -14395957.864 10 0 59862 25200.00000 0 14446584.392 -12651923.994 -16727242.696 10 0 59862 26100.00000 0 13595214.339 -10629964.844 -18732066.125 10 0 59862 27000.00000 0 12820199.866 -8339188.281 -20371439.286 10 0 59862 27900.00000 0 12165649.330 -5827497.887 -21613562.409 10 0 59862 28800.00000 0 11666982.177 -3151352.062 -22434437.735 10 0 59862 29700.00000 0 11349403.468 -373645.441 -22818324.317 10 0 59862 30600.00000 0 11226832.459 2438674.374 -22758027.009 10 0 59862 31500.00000 0 11301329.087 5217154.462 -22255015.469 10 0 59862 32400.00000 0 11563040.656 7894442.237 -21319372.623 10 0 59862 33300.00000 0 11990668.868 10406840.890 -19969575.305 10 0 59862 34200.00000 0 12552435.374 12696709.096 -18232113.035 10 0 59862 35100.00000 0 13207503.147 14714606.742 -16140953.864 10 0 59862 36000.00000 0 13907792.205 16421099.486 -13736868.880 10 0 59862 36900.00000 0 14600111.993 17788149.501 -11066629.495 10 0 59862 37800.00000 0 15228520.013 18800037.330 -8182093.711 10 0 59862 38700.00000 0 15736807.279 19453779.334 -5139199.334 10 0 59862 39600.00000 0 16071006.369 19759026.037 -1996883.713 10 0 59862 40500.00000 0 16181817.294 19737448.118 1184049.472 10 0 59862 41400.00000 0 16026850.165 19421637.728 4342095.115 10 0 59862 42300.00000 0 15572591.495 18853572.444 7416221.579 10 0 59862 43200.00000 0 14796012.446 18082706.921 10347034.082 10 0 59862 44100.00000 0 13685752.231 17163772.219 13077905.452 10 0 59862 45000.00000 0 12242827.229 16154374.442 15556053.789 10 0 59862 45900.00000 0 10480835.707 15112492.283 17733547.759 10 0 59862 46800.00000 0 8425648.485 14093976.995 19568221.555 10 0 59862 47700.00000 0 6114596.744 13150158.109 21024483.019 10 0 59862 48600.00000 0 3595188.471 12325653.917 22074000.321 10 0 59862 49500.00000 0 923404.142 11656477.459 22696254.435 10 0 59862 50400.00000 0 -1838360.463 11168516.928 22878946.780 10 0 59862 51300.00000 0 -4623621.931 10876454.293 22618253.628 10 0 59862 52200.00000 0 -7364313.583 10783168.254 21918921.323 10 0 59862 53100.00000 0 -9993364.817 10879647.945 20794198.882 10 0 59862 54000.00000 0 -12447250.049 11145422.775 19265607.345 10 0 59862 54900.00000 0 -14668402.276 11549492.404 17362548.120 10 0 59862 55800.00000 0 -16607390.893 12051719.691 15121755.672 10 0 59862 56700.00000 0 -18224772.500 12604629.694 12586603.090 10 0 59862 57600.00000 0 -19492536.296 13155539.991 9806272.236 10 0 59862 58500.00000 0 -20395082.122 13648932.833 6834803.456 10 0 59862 59400.00000 0 -20929688.632 14028968.495 3730042.808 10 0 59862 60300.00000 0 -21106450.675 14242032.255 552507.415 10 0 59862 61200.00000 0 -20947687.572 14239205.258 -2635807.920 10 0 59862 62100.00000 0 -20486847.043 13978552.172 -5772658.124 10 0 59862 63000.00000 0 -19766951.465 13427125.947 -8796783.400 10 0 59862 63900.00000 0 -18838653.242 12562602.104 -11649126.456 10 0 59862 64800.00000 0 -17757983.195 11374470.890 -14274005.488 10 0 59862 65700.00000 0 -16583889.208 9864734.891 -16620217.954 10 0 59862 66600.00000 0 -15375671.403 8048081.292 -18642051.871 10 0 59862 67500.00000 0 -14190424.194 5951520.801 -20300183.812 10 0 59862 68400.00000 0 -13080594.905 3613508.298 -21562445.539 10 0 59862 69300.00000 0 -12091762.921 1082582.599 -22404444.405 10 0 59862 70200.00000 0 -11260733.323 -1584416.887 -22810026.093 10 0 59862 71100.00000 0 -10614024.720 -4324481.200 -22771571.852 10 0 59862 72000.00000 0 -10166813.757 -7070820.645 -22290125.870 10 0 59862 72900.00000 0 -9922378.770 -9755411.291 -21375352.083 10 0 59862 73800.00000 0 -9872063.697 -12311593.005 -20045322.919 10 0 59862 74700.00000 0 -9995761.241 -14676611.238 -18326145.876 10 0 59862 75600.00000 0 -10262892.454 -16793997.882 -16251436.624 10 0 59862 76500.00000 0 -10633839.252 -18615693.756 -13861650.173 10 0 59862 77400.00000 0 -11061767.743 -20103826.380 -11203284.070 10 0 59862 78300.00000 0 -11494764.277 -21232071.508 -8327969.718 10 0 59862 79200.00000 0 -11878193.572 -21986544.276 -5291469.731 10 0 59862 80100.00000 0 -12157179.439 -22366185.426 -2152600.799 10 0 59862 81000.00000 0 -12279104.050 -22382628.884 1027897.433 10 0 59862 81900.00000 0 -12196021.198 -22059558.329 4188526.252 10 0 59862 82800.00000 0 -11866883.012 -21431581.122 7268202.822 10 0 59862 83700.00000 0 -11259487.399 -20542667.655 10207424.659 10 0 59862 84600.00000 0 -10352065.166 -19444221.644 12949402.497 10 0 59862 85500.00000 0 -9134440.607 -18192861.740 15441141.028 10 0 59863 0.00000 0 -7608716.927 -16848006.488 17634447.998 10 0 59863 900.00000 0 -5789456.078 -15469361.576 19486854.764 10 0 59863 1800.00000 0 -3703346.198 -14114414.773 20962428.821 10 0 59863 2700.00000 0 -1388365.606 -12836039.352 22032467.577 10 0 59863 3600.00000 0 1107522.516 -11680306.619 22676057.487 10 0 59863 4500.00000 0 3728094.227 -10684597.376 22880489.015 10 0 59863 5400.00000 0 6410939.073 -9876090.972 22641518.759 10 0 59863 6300.00000 0 9089801.445 -9270695.307 21963472.602 10 0 59863 7200.00000 0 11697094.344 -8872463.386 20859186.341 10 0 59863 8100.00000 0 14166483.268 -8673522.107 19349783.051 10 0 59863 9000.00000 0 16435434.135 -8654517.872 17464289.214 10 0 59863 9900.00000 0 18447619.622 -8785562.021 15239094.880 10 0 59863 10800.00000 0 20155083.384 -9027637.895 12717266.162 10 0 59863 11700.00000 0 21520070.796 -9334411.395 9947721.677 10 0 59863 12600.00000 0 22516448.113 -9654369.273 6984287.725 10 0 59863 13500.00000 0 23130648.888 -9933194.622 3884650.033 10 0 59863 14400.00000 0 23362106.255 -10116278.149 709222.585 10 0 59863 15300.00000 0 23223151.507 -10151257.203 -2480043.477 10 0 59863 16200.00000 0 22738382.456 -9990472.721 -5620886.186 10 0 59863 17100.00000 0 21943528.074 -9593237.260 -8651968.511 10 0 59863 18000.00000 0 20883857.923 -8927815.233 -11514097.082 10 0 59863 18900.00000 0 19612204.769 -7973028.809 -14151397.916 10 0 59863 19800.00000 0 18186685.624 -6719419.172 -16512424.139 10 0 59863 20700.00000 0 16668219.461 -5169912.346 -18551172.309 10 0 59863 21600.00000 0 15117948.348 -3339960.327 -20227986.397 10 0 59863 22500.00000 0 13594672.476 -1257151.081 -21510331.235 10 0 59863 23400.00000 0 12152408.407 1039696.077 -22373420.358 10 0 59863 24300.00000 0 10838173.842 3501911.214 -22800686.681 10 0 59863 25200.00000 0 9690091.820 6072772.067 -22784087.963 10 0 59863 26100.00000 0 8735893.003 8689643.742 -22324242.571 10 0 59863 27000.00000 0 7991877.157 11286369.842 -21430394.614 10 0 59863 27900.00000 0 7462375.075 13795814.935 -20120210.863 10 0 59863 28800.00000 0 7139730.855 16152452.418 -18419415.098 10 0 59863 29700.00000 0 7004802.376 18294890.609 -16361268.550 10 0 59863 30600.00000 0 7027956.184 20168233.055 -13985907.734 10 0 59863 31500.00000 0 7170512.556 21726176.263 -11339553.602 10 0 59863 32400.00000 0 7386577.948 22932759.586 -8473607.968 10 0 59863 33300.00000 0 7625186.361 23763696.566 -5443655.049 10 0 59863 34200.00000 0 7832658.749 24207234.567 -2308387.541 10 0 59863 35100.00000 0 7955080.926 24264509.138 871522.336 10 0 59863 36000.00000 0 7940796.034 23949380.317 4034585.593 10 0 59863 36900.00000 0 7742807.311 23287759.285 7119671.374 10 0 59863 37800.00000 0 7320990.973 22316454.581 10067172.443 10 0 59863 38700.00000 0 6644026.951 21081586.459 12820140.093 10 0 59863 39600.00000 0 5690966.988 19636635.469 15325367.923 10 0 59863 40500.00000 0 4452374.450 18040205.968 17534405.099 10 0 59863 41400.00000 0 2930987.578 16353596.666 19404480.963 10 0 59863 42300.00000 0 1141877.376 14638278.098 20899324.355 10 0 59863 43200.00000 0 -887908.344 12953380.542 21989862.845 10 0 59863 44100.00000 0 -3120202.346 11353295.574 22654788.917 10 0 59863 45000.00000 0 -5507043.959 9885490.019 22880982.269 10 0 59863 45900.00000 0 -7992421.677 8588622.566 22663779.591 10 0 59863 46800.00000 0 -10514363.102 7491041.315 22007085.630 10 0 59863 47700.00000 0 -13007288.247 6609725.274 20923321.835 10 0 59863 48600.00000 0 -15404530.757 5949714.796 19433211.697 10 0 59863 49500.00000 0 -17640923.942 5504055.965 17565404.705 10 0 59863 50400.00000 0 -19655344.725 5254262.716 15355943.985 10 0 59863 51300.00000 0 -21393109.501 5171278.633 12847585.826 10 0 59863 52200.00000 0 -22808121.078 5216899.139 10088982.474 10 0 59863 53100.00000 0 -23864675.412 5345594.835 7133742.911 10 0 59863 54000.00000 0 -24538850.618 5506659.047 4039389.208 10 0 59863 54900.00000 0 -24819417.993 5646588.112 866228.919 10 0 59863 55800.00000 0 -24708234.916 5711592.232 -2323833.650 10 0 59863 56700.00000 0 -24220101.757 5650128.442 -5468522.673 10 0 59863 57600.00000 0 -23382088.036 5415345.792 -8506426.721 10 0 59863 58500.00000 0 -22232356.249 4967336.293 -11378218.961 10 0 59863 59400.00000 0 -20818533.689 4275093.483 -14027835.595 10 0 59863 60300.00000 0 -19195702.228 3318093.123 -16403587.464 10 0 59863 61200.00000 0 -17424092.613 2087427.137 -18459181.348 10 0 59863 62100.00000 0 -15566582.331 586441.421 -20154629.886 10 0 59863 63000.00000 0 -13686104.164 -1169150.230 -21457031.773 10 0 59863 63900.00000 0 -11843075.923 -3151680.996 -22341207.035 10 0 59863 64800.00000 0 -10092960.144 -5322457.014 -22790175.635 10 0 59863 65700.00000 0 -8484056.280 -7633154.932 -22795471.203 10 0 59863 66600.00000 0 -7055617.279 -10027631.608 -22357285.214 10 0 59863 67500.00000 0 -5836367.987 -12444069.462 -21484440.512 10 0 59863 68400.00000 0 -4843485.206 -14817367.279 -20194196.436 10 0 59863 69300.00000 0 -4082079.478 -17081676.329 -18511891.043 10 0 59863 70200.00000 0 -3545197.245 -19172976.251 -16470428.908 10 0 59863 71100.00000 0 -3214340.184 -21031584.014 -14109625.724 10 0 59863 72000.00000 0 -3060477.043 -22604492.438 -11475423.451 10 0 59863 72900.00000 0 -3045502.913 -23847442.389 -8618991.927 10 0 59863 73800.00000 0 -3124082.603 -24726644.156 -5595734.633 10 0 59863 74700.00000 0 -3245799.232 -25220078.173 -2464218.009 10 0 59863 75600.00000 0 -3357516.915 -25318322.926 714955.315 10 0 59863 76500.00000 0 -3405857.951 -25024877.335 3880308.164 10 0 59863 77400.00000 0 -3339690.663 -24355965.721 6970663.678 10 0 59863 78300.00000 0 -3112523.866 -23339834.562 9926311.835 10 0 59863 79200.00000 0 -2684708.065 -22015570.937 12690146.394 10 0 59863 80100.00000 0 -2025351.625 -20431491.859 15208751.714 10 0 59863 81000.00000 0 -1113871.864 -18643171.044 17433419.940 10 0 59863 81900.00000 0 58884.091 -16711184.118 19321080.414 10 0 59863 82800.00000 0 1489996.273 -14698664.726 20835124.553 10 0 59863 83700.00000 0 3164334.998 -12668771.463 21946111.308 10 0 59863 84600.00000 0 5054937.953 -10682169.285 22632340.184 10 0 59863 85500.00000 0 7123888.091 -8794628.602 22880280.816 99